Date String (YYYY-MM-DD hh:mm:ss) UTC,Instrument flags,absolute air pressure of the measurement (hPa),sample flow rate (lpm),inlet stack bypass flow (lpm),air temperature of the measurement (°C),ambient temperature measured by the external sensor (°C),aerosol sample conditioner tube jacket temperature (°C),OPC LED temperature (°C),internal box temperature (°C),relative humidity of the measurement (%),span deviation,mass concentration of particles derived from Lorenz-Mie calculation of OPC scattering (μg/m³),mass concentration of particles derived from Lorenz-Mie calculation of OPC scattering (μg/m³),mass concentration of particles derived from Lorenz-Mie calculation of OPC scattering (μg/m³)
DateTimeUTC,F1_M11,P_M11,Q1_M11,Q2_M11,T1_M11,T2_M11,T3_M11,T4_M11,T5_M11,U1_M11,ZSPAN_M11,X2_M11,X0_M11,X1_M11
2023-10-17 09:00:00,SystemResetWarning,0831.6,5.00,000.00,028.6,027.1,000.0,037.1,030.2,13.3,0000.0,0003.11,0007.66,0002.19
2023-10-17 09:01:00,SystemResetWarning,0831.6,5.00,000.00,028.6,027.1,000.0,037.1,030.3,13.3,0000.0,0003.16,0007.78,0002.21
2023-10-17 09:02:00,SystemResetWarning,0831.6,4.99,000.00,028.6,027.1,000.0,037.1,030.2,13.2,0000.0,0003.15,0007.83,0002.23
2023-10-17 09:03:00,SystemResetWarning,0831.6,5.00,000.00,028.6,027.1,000.0,037.1,030.2,13.3,0000.0,0003.16,0008.19,0002.24
2023-10-17 09:04:00,SystemResetWarning,0831.6,4.99,000.00,028.6,027.1,000.0,037.1,030.2,13.3,0000.0,0003.18,0008.49,0002.24
2023-10-17 09:05:00,SystemResetWarning,0831.6,5.00,000.00,028.6,027.1,000.0,037.1,030.2,13.3,0000.0,0003.22,0008.78,0002.26
2023-10-17 09:06:00,SystemResetWarning,0831.6,5.01,000.00,028.6,027.1,000.0,037.1,030.2,13.4,0000.0,0003.26,0008.90,0002.28
2023-10-17 09:07:00,SystemResetWarning,0831.6,5.00,000.00,028.6,027.1,000.0,037.1,030.3,13.3,0000.0,0003.24,0008.56,0002.27
2023-10-17 09:08:00,SystemResetWarning,0831.6,5.00,000.00,028.6,027.1,000.0,037.1,030.2,13.3,0000.0,0003.22,0009.03,0002.26
2023-10-17 09:09:00,SystemResetWarning,0831.6,5.00,000.00,028.6,027.1,000.0,037.1,030.3,13.3,0000.0,0003.23,0008.95,0002.25
2023-10-17 09:10:00,SystemResetWarning,0831.6,5.00,000.00,028.6,027.1,000.0,037.1,030.2,13.3,0000.0,0003.20,0009.01,0002.23
2023-10-17 09:11:00,SystemResetWarning,0831.5,5.00,000.00,028.6,027.1,000.0,037.1,030.2,13.4,0000.0,0003.14,0009.93,0002.20
2023-10-17 09:12:00,SystemResetWarning,0831.5,5.01,000.00,028.6,027.1,000.0,037.1,030.3,13.4,0000.0,0003.09,0010.15,0002.17
2023-10-17 09:13:00,SystemResetWarning,0831.5,5.00,000.00,028.6,027.1,000.0,037.1,030.3,13.4,0000.0,0003.02,0010.22,0002.13
2023-10-17 09:14:00,SystemResetWarning,0831.5,4.98,000.00,028.6,027.1,000.0,037.1,030.3,13.3,0000.0,0002.91,0010.18,0002.08
2023-10-17 09:15:00,SystemResetWarning,0831.5,5.00,000.00,028.6,027.1,000.0,037.1,030.3,13.3,0000.0,0002.78,0009.76,0002.06
2023-10-17 09:16:00,SystemResetWarning,0831.5,5.01,000.00,028.6,027.1,000.0,037.1,030.3,13.3,0000.0,0002.70,0009.47,0002.05
2023-10-17 09:17:00,SystemResetWarning,0831.5,5.00,000.00,028.6,027.2,000.0,037.1,030.3,13.3,0000.0,0002.59,0009.24,0002.01
2023-10-17 09:18:00,SystemResetWarning,0831.4,4.98,000.00,028.6,027.2,000.0,037.1,030.3,13.2,0000.0,0002.58,0009.19,0001.99
2023-10-17 09:19:00,SystemResetWarning,0831.4,5.01,000.00,028.6,027.2,000.0,037.1,030.3,13.2,0000.0,0002.62,0008.46,0001.98
2023-10-17 09:20:00,SystemResetWarning,0831.4,5.01,000.00,028.6,027.2,000.0,037.1,030.3,13.2,0000.0,0002.56,0008.46,0001.95
2023-10-17 09:21:00,SystemResetWarning,0831.3,5.00,000.00,028.7,027.2,000.0,037.1,030.3,13.0,0000.0,0002.48,0008.34,0001.93
2023-10-17 09:22:00,SystemResetWarning,0831.3,4.99,000.00,028.7,027.2,000.0,037.1,030.3,12.9,0000.0,0002.46,0006.83,0001.92
2023-10-17 09:23:00,SystemResetWarning,0831.3,5.00,000.00,028.7,027.2,000.0,037.1,030.3,12.8,0000.0,0002.48,0006.32,0001.92
2023-10-17 09:24:00,SystemResetWarning,0831.4,5.01,000.00,028.7,027.2,000.0,037.1,030.3,12.9,0000.0,0002.49,0006.09,0001.94
2023-10-17 09:25:00,SystemResetWarning,0831.3,4.99,000.00,028.6,027.2,000.0,037.1,030.3,12.9,0000.0,0002.53,0005.38,0001.95
2023-10-17 09:26:00,SystemResetWarning,0831.4,4.99,000.00,028.6,027.2,000.0,037.1,030.3,12.9,0000.0,0002.56,0005.46,0001.94
2023-10-17 09:27:00,SystemResetWarning,0831.3,5.01,000.00,028.6,027.2,000.0,037.1,030.3,13.0,0000.0,0002.50,0005.91,0001.91
2023-10-17 09:28:00,SystemResetWarning,0831.3,5.00,000.00,028.6,027.1,000.0,037.1,030.3,13.1,0000.0,0002.51,0006.06,0001.90
2023-10-17 09:29:00,SystemResetWarning,0831.3,5.00,000.00,028.6,027.1,000.0,037.1,030.3,13.0,0000.0,0002.54,0006.77,0001.91
2023-10-17 09:30:00,SystemResetWarning,0831.4,5.01,000.00,028.6,027.1,000.0,037.1,030.3,13.0,0000.0,0002.48,0007.00,0001.90
2023-10-17 09:31:00,SystemResetWarning,0831.3,5.00,000.00,028.6,027.1,000.0,037.1,030.2,13.1,0000.0,0002.48,0006.86,0001.90
2023-10-17 09:32:00,SystemResetWarning,0831.3,5.00,000.00,028.6,027.1,000.0,037.1,030.2,13.1,0000.0,0002.48,0006.01,0001.90
2023-10-17 09:33:00,SystemResetWarning,0831.4,5.00,000.00,028.6,027.1,000.0,037.1,030.2,13.1,0000.0,0002.48,0006.00,0001.89
2023-10-17 09:34:00,SystemResetWarning,0831.3,4.99,000.00,028.6,027.1,000.0,037.1,030.2,13.2,0000.0,0002.42,0005.77,0001.86
2023-10-17 09:35:00,SystemResetWarning,0831.3,4.99,000.00,028.6,027.1,000.0,037.1,030.3,13.2,0000.0,0002.33,0005.53,0001.82
2023-10-17 09:36:00,SystemResetWarning,0831.3,5.00,000.00,028.6,027.1,000.0,037.1,030.3,13.1,0000.0,0002.26,0005.80,0001.78
2023-10-17 09:37:00,SystemResetWarning,0831.3,4.99,000.00,028.6,027.1,000.0,037.1,030.3,13.0,0000.0,0002.24,0006.06,0001.74
2023-10-17 09:38:00,SystemResetWarning,0831.3,5.00,000.00,028.6,027.1,000.0,037.1,030.2,12.9,0000.0,0002.24,0006.16,0001.72
2023-10-17 09:39:00,SystemResetWarning,0831.3,5.01,000.00,028.6,027.1,000.0,037.1,030.2,12.9,0000.0,0002.19,0005.57,0001.68
2023-10-17 09:40:00,SystemResetWarning,0831.3,5.01,000.00,028.6,027.1,000.0,037.1,030.2,13.0,0000.0,0002.16,0005.28,0001.65
2023-10-17 09:41:00,SystemResetWarning,0831.3,5.01,000.00,028.6,027.1,000.0,037.1,030.2,12.9,0000.0,0002.13,0004.53,0001.63
2023-10-17 09:42:00,SystemResetWarning,0831.3,4.98,000.00,028.6,027.1,000.0,037.1,030.3,12.9,0000.0,0002.16,0004.69,0001.62
2023-10-17 09:43:00,SystemResetWarning,0831.3,4.99,000.00,028.6,027.1,000.0,037.1,030.2,12.9,0000.0,0002.13,0004.68,0001.61
2023-10-17 09:44:00,SystemResetWarning,0831.3,5.00,000.00,028.6,027.0,000.0,037.1,030.2,12.9,0000.0,0002.08,0004.56,0001.58
2023-10-17 09:45:00,SystemResetWarning,0831.3,5.01,000.00,028.6,027.0,000.0,037.1,030.2,13.0,0000.0,0002.06,0004.53,0001.57
2023-10-17 09:46:00,SystemResetWarning,0831.3,5.01,000.00,028.6,027.0,000.0,037.1,030.2,13.0,0000.0,0002.11,0004.56,0001.60
2023-10-17 09:47:00,SystemResetWarning,0831.3,5.00,000.00,028.6,027.0,000.0,037.1,030.2,13.0,0000.0,0002.20,0004.93,0001.63
2023-10-17 09:48:00,SystemResetWarning,0831.2,5.00,000.00,028.6,027.0,000.0,037.1,030.2,13.0,0000.0,0002.20,0005.24,0001.66
2023-10-17 09:49:00,SystemResetWarning,0831.3,4.99,000.00,028.6,027.0,000.0,037.1,030.2,13.2,0000.0,0002.19,0005.07,0001.67
2023-10-17 09:50:00,SystemResetWarning,0831.2,5.00,000.00,028.6,027.0,000.0,037.1,030.2,13.2,0000.0,0002.22,0005.36,0001.69
2023-10-17 09:51:00,SystemResetWarning,0831.2,5.00,000.00,028.6,027.0,000.0,037.1,030.2,13.2,0000.0,0002.15,0005.14,0001.68
2023-10-17 09:52:00,SystemResetWarning,0831.2,4.99,000.00,028.6,027.0,000.0,037.1,030.2,13.3,0000.0,0002.10,0005.00,0001.66
2023-10-17 09:53:00,SystemResetWarning,0831.2,5.00,000.00,028.6,027.0,000.0,037.1,030.2,13.2,0000.0,0002.03,0004.79,0001.63
2023-10-17 09:54:00,SystemResetWarning,0831.2,5.01,000.00,028.6,027.0,000.0,037.1,030.2,13.1,0000.0,0002.01,0004.60,0001.61
2023-10-17 09:55:00,SystemResetWarning,0831.2,5.00,000.00,028.6,027.0,000.0,037.1,030.2,13.1,0000.0,0002.01,0005.01,0001.60
2023-10-17 09:56:00,SystemResetWarning,0831.2,5.01,000.00,028.6,027.0,000.0,037.0,030.2,13.2,0000.0,0002.02,0005.60,0001.60
2023-10-17 09:57:00,SystemResetWarning,0831.1,5.01,000.00,028.6,027.0,000.0,037.0,030.2,13.2,0000.0,0001.97,0005.66,0001.57
2023-10-17 09:58:00,SystemResetWarning,0831.1,5.00,000.00,028.6,027.0,000.0,037.0,030.2,13.2,0000.0,0001.86,0005.09,0001.51
2023-10-17 09:59:00,SystemResetWarning,0831.1,5.00,000.00,028.6,027.0,000.0,037.0,030.2,13.3,0000.0,0001.74,0003.96,0001.43
